This demonstration page uses our WeatherBlox Daily Observations layout. Learn more.

Left ArrowRight Arrow

30.21309, -93.2044

Hourly Observations for May 28, 2022

Temp ( °F °C ) Dew Point ( °F °C ) Humidity (%) Winds ( mph kmh ) Pressure ( in mb ) Visibility ( mi km ) Precip ( " mm )
12:15 am 00:15 Clear 71 21.7 54 12 54 54 NE 8 13 29.95 1014 10 16 0.00 0.00
12:35 am 00:35 Clear 71 21.5 53 11.8 54 54 NE 5 7 29.95 1014 10 16 0.00 0.00
12:55 am 00:55 Clear 70 21.2 53 11.6 54 54 NE 5 7 29.95 1014 10 16 0.00 0.00
1:15 am 01:15 Clear 61 16 54 12.2 78 78 SE 5 7 29.94 1014 10 16 0.00 0.00
1:35 am 01:35 Clear 61 16.1 55 12.7 80 80 SSE 5 7 29.94 1014 10 16 0.00 0.00
1:55 am 01:55 Clear 64 17.9 55 12.6 71 71 Calm 29.94 1014 10 16 0.00 0.00
2:15 am 02:15 Clear 66 18.8 55 12.9 69 69 Calm 29.93 1014 10 16 0.00 0.00
2:35 am 02:35 Clear 65 18.4 55 12.7 70 70 Calm 29.93 1014 10 16 0.00 0.00
2:55 am 02:55 Clear 65 18.5 55 12.9 70 70 Calm 29.93 1014 10 16 0.00 0.00
3:15 am 03:15 Clear 63 17.2 55 13 76 76 Calm 29.94 1014 10 16 0.00 0.00
3:35 am 03:35 Clear 62 16.8 55 12.9 78 78 Calm 29.94 1014 10 16 0.00 0.00
3:55 am 03:55 Clear 64 17.6 56 13.3 76 76 Calm 29.94 1014 10 16 0.00 0.00
4:15 am 04:15 Clear 64 17.5 56 13.1 76 76 Calm 29.94 1014 10 16 0.00 0.00
4:35 am 04:35 Clear 63 17.3 56 13.6 79 79 ENE 3 6 29.94 1014 10 16 0.00 0.00
4:55 am 04:55 Clear 64 17.6 56 13.1 75 75 E 3 6 29.93 1014 10 16 0.00 0.00
5:15 am 05:15 Clear 63 17.2 56 13.3 78 78 NE 3 6 29.94 1014 10 16 0.00 0.00
5:35 am 05:35 Clear 64 17.5 57 13.9 80 80 ENE 3 6 29.93 1014 10 16 0.00 0.00
6:00 am 06:00 Mostly Clear 64 18 57 14 78 78 Calm 29.94 1014 10 16 0.00 0.00
6:55 am 06:55 Mostly Sunny 64 18 57 14 78 78 Calm 29.96 1015 10 16 0.00 0.00
7:46 am 07:46 Mostly Sunny 70 21 61 16 73 73 Calm 29.97 1015 10 16 0.00 0.00
8:53 am 08:53 Mostly Sunny 75 24 61 16 61 61 E 9 15 29.98 1015 10 16 0.00 0.00
9:55 am 09:55 Mostly Sunny 79 26 57 14 48 48 E 7 11 29.98 1015 10 16 0.00 0.00
10:55 am 10:55 Mostly Sunny 81 27 54 12 39 39 SE 7 11 29.98 1015 10 16 0.00 0.00
11:55 am 11:55 Mostly Sunny 82 28 55 13 40 40 NNE 6 9 29.96 1015 10 16 0.00 0.00
12:45 pm 12:45 Mostly Sunny 82 28 55 13 40 40 S 6 9 29.95 1014 10 16 0.00 0.00
1:54 pm 13:54 Mostly Sunny 84 29 57 14 40 40 Calm 29.93 1014 10 16 0.00 0.00
2:47 pm 14:47 Mostly Sunny 86 30 59 15 40 40 VRB 6 9 29.91 1013 10 16 0.00 0.00
3:55 pm 15:55 Mostly Sunny 88 31 59 15 38 38 Calm 29.89 1012 10 16 0.00 0.00
4:55 pm 16:55 Mostly Sunny 88 31 59 15 38 38 Calm 29.86 1011 10 16 0.00 0.00
5:51 pm 17:51 Mostly Sunny 88 31 61 16 40 40 ESE 9 15 29.85 1011 10 16 0.00 0.00
6:47 pm 18:47 Mostly Sunny 84 29 61 16 45 45 ESE 8 13 29.84 1010 10 16 0.00 0.00
7:53 pm 19:53 Mostly Sunny 79 26 63 17 58 58 ESE 7 11 29.85 1011 10 16 0.00 0.00
8:46 pm 20:46 Mostly Clear 75 24 63 17 65 65 SE 6 9 29.85 1011 10 16 0.00 0.00
9:45 pm 21:45 Mostly Clear 68 20 63 17 83 83 S 6 9 29.86 1011 10 16 0.00 0.00
10:15 pm 22:15 Clear 69 20.6 64 17.5 83 83 S 5 7 29.87 1012 10 16 0.00 0.00
10:35 pm 22:35 Clear 70 21 64 17.7 82 82 SSE 6 9 29.87 1012 10 16 0.00 0.00
10:55 pm 22:55 Clear 70 20.9 63 17.4 80 80 SSE 3 6 29.87 1012 10 16 0.00 0.00
11:15 pm 23:15 Clear 68 20.1 63 17.2 83 83 S 6 9 29.87 1012 10 16 0.00 0.00
11:35 pm 23:35 Clear 68 19.9 64 17.7 87 87 S 5 7 29.87 1012 10 16 0.00 0.00
11:55 pm 23:55 Clear 67 19.7 64 17.5 87 87 S 6 9 29.87 1012 10 16 0.00 0.00

Powered by AerisWeather